[[{"header":{"parameterUnit":"m.s-1","parameterCategory":2,"la1":30.2991,"la2":30.254,"lo1":-89.0895,"lo2":-89.0444,"dy":0.0017,"dx":0.0017,"nx":28,"ny":28,"refTime":"2025-06-14T09:00:00:Z","depth":"0","parameterNumber":2,"parameterNumberName":"U-component_of_CURRENTS"},"data":[0,0,0,0,0,0,0,0,0,0,0,0,0,0,0,0,0,0,0,0,0,0,0,0,0,0,0,0,0,0,0,0,0,0,0,0,0,0,0,0,0,0,0,0,0,0,0,0,0,0,0,0,0,0,0,0,0,0,-0.29,-0.2901,0,-0.2935,-0.2935,-0.2935,-0.2827,-0.2825,-0.2823,-0.282,-0.2706,-0.2705,-0.2705,0,0,0,0,0,0,0,0,0,0,0,0,0,-0.2686,-0.269,-0.29,-0.2901,-0.2903,-0.2936,-0.2935,-0.2935,-0.2828,-0.2825,-0.2822,-0.2819,-0.2706,-0.2705,-0.2705,0,0,0,0,0,0,0,0,0,0,0,0,0,-0.2748,-0.2692,-0.29,-0.286,-0.2857,-0.2936,-0.2935,-0.2935,-0.2829,-0.2825,-0.2821,-0.2818,-0.2707,-0.2705,-0.2704,-0.2772,0,0,-0.2701,-0.2701,0,0,0,0,0,0,0,0,-0.2745,-0.2755,-0.2864,-0.2863,-0.286,-0.2881,-0.2818,-0.2876,-0.2829,-0.283,-0.282,-0.2816,-0.2759,-0.2754,-0.2758,-0.2766,-0.2761,-0.2701,-0.27,-0.27,-0.2699,0,0,0,0,0,0,0,-0.274,-0.2752,-0.2905,-0.2866,-0.2864,-0.2822,-0.2826,-0.2828,-0.2805,-0.283,-0.2824,-0.2844,-0.2755,-0.2759,-0.2754,-0.276,-0.2701,-0.27,-0.2699,-0.2699,-0.2764,-0.2767,0,0,0,0,0,0,-0.2762,-0.275,-0.2904,-0.2907,-0.2802,-0.283,-0.2834,-0.2871,-0.2808,-0.2799,-0.2847,-0.2839,-0.2763,-0.2756,-0.275,-0.2747,-0.27,-0.2699,-0.2698,-0.2762,-0.2765,-0.2767,0,0,0,0,0,0,-0.2758,-0.2776,-0.2903,-0.2834,-0.2848,-0.2839,-0.288,-0.2874,-0.2876,-0.2825,-0.2809,-0.2856,-0.276,-0.2751,-0.2764,-0.2744,-0.2698,-0.2697,-0.2759,-0.2763,-0.2766,-0.2791,0,0,0,0,0,0,-0.2752,-0.2775,-0.28,-0.2837,-0.2853,-0.2967,-0.2885,-0.2877,-0.2899,-0.2888,-0.2829,-0.2814,-0.2756,-0.2766,-0.2763,-0.2741,-0.2696,-0.2756,-0.2761,-0.2765,-0.2787,-0.2795,-0.2801,0,0,0,0,0,-0.2744,-0.2817,-0.2802,-0.282,-0.2892,-0.2971,-0.2976,-0.2948,-0.2903,-0.293,-0.2885,-0.2816,-0.279,-0.2769,-0.2764,-0.2741,-0.2754,-0.2759,-0.2765,-0.2784,-0.2793,-0.2801,0,0,0,0,0,0,-0.2732,-0.2815,-0.2798,-0.2888,-0.2929,-0.2956,-0.2985,-0.2971,-0.2961,-0.2933,-0.2864,-0.285,-0.286,-0.2824,-0.2802,-0.2781,-0.2755,-0.276,-0.2771,-0.278,-0.2787,-0.2738,-0.2695,0,0,0,0,0,-0.2748,-0.2819,-0.2876,-0.2942,-0.297,-0.2977,-0.3001,-0.2989,-0.2995,-0.2984,-0.2948,-0.2905,-0.2886,-0.2851,-0.2851,-0.2844,-0.2801,-0.2826,-0.2834,-0.2839,-0.2802,-0.2759,-0.2757,-0.2785,-0.2785,-0.2785,0,0,-0.2758,-0.2815,-0.2849,-0.2943,-0.2963,-0.2985,-0.298,-0.3035,-0.3014,-0.2977,-0.2947,-0.2957,-0.2907,-0.2895,-0.289,-0.2847,-0.2821,-0.2846,-0.2851,-0.2809,-0.2764,-0.276,-0.2757,-0.2789,-0.2788,-0.2788,0,0,-0.2799,-0.2868,-0.2917,-0.2956,-0.3014,-0.3022,-0.3045,-0.3085,-0.3063,-0.3078,-0.3032,-0.3027,-0.301,-0.2945,-0.291,-0.2966,-0.2894,-0.298,-0.2925,-0.2886,-0.2881,-0.2876,-0.285,-0.2842,-0.2941,-0.2941,-0.2941,0,-0.2784,-0.2847,-0.2943,-0.2979,-0.298,-0.3034,-0.3033,-0.305,-0.3076,-0.3055,-0.3068,-0.3036,-0.301,-0.2935,-0.2946,-0.2968,-0.2951,-0.2885,-0.2888,-0.2882,-0.2877,-0.285,-0.2841,-0.2943,-0.2943,-0.2942,-0.2942,0,-0.2845,-0.2865,-0.2907,-0.2942,-0.2978,-0.3007,-0.3034,-0.3057,-0.3052,-0.3045,-0.3037,-0.3033,-0.2988,-0.2997,-0.2976,-0.2922,-0.293,-0.2932,-0.2849,-0.2874,-0.2847,-0.2837,-0.2946,-0.2945,-0.2944,-0.2944,0,0,-0.284,-0.2918,-0.2919,-0.289,-0.2943,-0.2976,-0.2969,-0.2966,-0.295,-0.298,-0.2933,-0.2924,-0.2945,-0.291,-0.2904,-0.2855,-0.2826,-0.2869,-0.2866,-0.2812,-0.2751,-0.2671,-0.2652,-0.2833,-0.2831,-0.2829,-0.2758,0,-0.281,-0.2831,-0.2887,-0.2857,-0.2841,-0.2882,-0.2877,-0.289,-0.2906,-0.2905,-0.2886,-0.288,-0.2901,-0.2898,-0.2856,-0.2855,-0.2797,-0.2845,-0.276,-0.2756,-0.2655,-0.2636,-0.2526,-0.2445,-0.2748,-0.2746,-0.2745,0,-0.2815,-0.2808,-0.2773,-0.2761,-0.2768,-0.2771,-0.276,-0.2772,-0.2791,-0.2809,-0.2797,-0.2822,-0.277,-0.2804,-0.2738,-0.2776,-0.2751,-0.274,-0.2737,-0.2628,-0.2655,-0.2467,-0.2415,-0.2409,-0.2729,-0.273,-0.2732,0,-0.272,-0.2724,-0.2674,-0.2671,-0.2688,-0.2673,-0.2692,-0.2724,-0.2737,-0.2748,-0.2768,-0.2735,-0.2732,-0.2692,-0.2687,-0.2713,-0.2622,-0.2651,-0.2542,-0.2538,-0.2402,-0.2388,-0.2293,-0.2568,-0.2568,-0.2568,-0.2568,0,-0.2647,-0.2601,-0.2628,-0.2596,-0.2551,-0.2603,-0.2592,-0.262,-0.2665,-0.2675,-0.2715,-0.2709,-0.2709,-0.2677,-0.2656,-0.2563,-0.259,-0.2503,-0.2494,-0.2416,-0.2405,-0.2359,-0.2398,-0.2565,-0.2566,-0.2566,-0.2567,0,-0.2532,-0.2557,-0.2497,-0.2499,-0.2502,-0.2477,-0.2541,-0.255,-0.2615,-0.2625,-0.2628,-0.2676,-0.263,-0.2613,-0.2552,-0.2515,-0.239,-0.2394,-0.231,-0.229,-0.2165,-0.2211,-0.2084,-0.2024,-0.2245,-0.2242,-0.224,0,-0.2454,-0.2413,-0.2418,-0.2398,-0.239,-0.2388,-0.2399,-0.2491,-0.2515,-0.2595,-0.2583,-0.2574,-0.2517,-0.2411,-0.2337,-0.2234,-0.2268,-0.2096,-0.2097,-0.2101,-0.2148,-0.2198,-0.2162,-0.1955,-0.1951,-0.1947,-0.1944,0,-0.2258,-0.2294,-0.2267,-0.2242,-0.2239,-0.225,-0.2279,-0.2296,-0.2406,-0.2419,-0.2412,-0.2372,-0.2304,-0.2153,-0.2058,-0.1993,-0.2043,-0.2015,-0.2029,-0.1894,-0.1929,-0.1887,-0.2092,-0.1912,-0.1915,-0.1917,-0.1919,-0.192,-0.2097,-0.207,-0.2067,-0.2036,-0.2054,-0.2054,-0.1982,-0.2043,-0.2036,-0.1954,-0.2155,-0.1991,-0.2041,-0.1868,-0.181,-0.1695,-0.1777,-0.1656,-0.171,-0.1759,-0.1687,-0.1817,-0.1624,-0.1625,-0.1626,-0.1628,-0.1629,0,-0.1815,-0.1847,-0.1843,-0.1795,-0.1742,-0.183,-0.1832,-0.1714,-0.1589,-0.1573,-0.1525,-0.1566,-0.1513,-0.1528,-0.1507,-0.1433,-0.1417,-0.1417,-0.147,-0.1444,-0.1544,-0.1516,-0.1277,-0.1277,-0.1277,-0.1277,-0.1277,-0.1277,-0.1662,-0.1586,-0.1624,-0.1456,-0.1438,-0.1278,-0.1222,-0.1097,-0.1007,-0.081,-0.0733,-0.0757,-0.1082,-0.1442,-0.1427,-0.1353,-0.135,-0.1294,-0.1347,-0.145,-0.1478,-0.1504,-0.1484,-0.1243,-0.1243,-0.1178,-0.1178,-0.1178]},{"header":{"parameterUnit":"m.s-1","parameterCategory":2,"la1":30.2991,"la2":30.254,"lo1":-89.0895,"lo2":-89.0444,"dy":0.0017,"dx":0.0017,"nx":28,"ny":28,"refTime":"2025-06-14T09:00:00:Z","depth":"0","parameterNumber":3,"parameterNumberName":"V-component_of_CURRENTS"},"data":[0,0,0,0,0,0,0,0,0,0,0,0,0,0,0,0,0,0,0,0,0,0,0,0,0,0,0,0,0,0,0,0,0,0,0,0,0,0,0,0,0,0,0,0,0,0,0,0,0,0,0,0,0,0,0,0,0,0,0.0524,0.0525,0,0.0647,0.0649,0.065,0.0744,0.0745,0.0746,0.0747,0.087,0.0873,0.0875,0,0,0,0,0,0,0,0,0,0,0,0,0,0.0396,0.0398,0.0524,0.0525,0.0527,0.0647,0.0649,0.0651,0.0744,0.0745,0.0746,0.0747,0.0869,0.0872,0.0875,0,0,0,0,0,0,0,0,0,0,0,0,0,0.0479,0.0399,0.0523,0.0587,0.0594,0.0647,0.0649,0.0651,0.0744,0.0745,0.0746,0.0748,0.0868,0.0872,0.0876,0.0874,0,0,0.0887,0.0889,0,0,0,0,0,0,0,0,0.0475,0.0484,0.0576,0.0583,0.0591,0.0681,0.0649,0.0726,0.0744,0.0688,0.0747,0.0748,0.0806,0.0815,0.0836,0.088,0.0885,0.0888,0.089,0.0891,0.0893,0,0,0,0,0,0,0,0.0469,0.0479,0.0573,0.0578,0.0587,0.062,0.0633,0.0664,0.0739,0.0693,0.07,0.0712,0.081,0.0832,0.0839,0.0887,0.0887,0.0891,0.0893,0.0895,0.0955,0.0954,0,0,0,0,0,0,0.045,0.0474,0.0569,0.0577,0.0534,0.0621,0.0635,0.0651,0.0739,0.0753,0.0711,0.0716,0.0825,0.0835,0.0844,0.0829,0.0891,0.0895,0.0897,0.0955,0.0955,0.0954,0,0,0,0,0,0,0.0447,0.0457,0.0564,0.0527,0.0543,0.0621,0.0639,0.0653,0.0673,0.0752,0.0767,0.0716,0.0826,0.0839,0.0875,0.0835,0.0897,0.09,0.0956,0.0955,0.0954,0.0811,0,0,0,0,0,0,0.0442,0.0455,0.045,0.0526,0.0545,0.0578,0.0638,0.0655,0.0679,0.0687,0.0761,0.0775,0.0828,0.0869,0.0878,0.0842,0.0903,0.0957,0.0956,0.0955,0.0816,0.0805,0.0795,0,0,0,0,0,0.0437,0.0416,0.0449,0.046,0.0539,0.0577,0.0589,0.0649,0.0677,0.0674,0.0736,0.0772,0.0868,0.0871,0.0883,0.0846,0.0958,0.0956,0.0955,0.0821,0.0807,0.0795,0,0,0,0,0,0,0.0348,0.0427,0.0464,0.0466,0.0514,0.0593,0.0586,0.0635,0.0681,0.0683,0.0766,0.0783,0.081,0.0847,0.0849,0.0863,0.0917,0.0917,0.0811,0.0799,0.0788,0.0725,0.0906,0,0,0,0,0,0.0329,0.0339,0.0418,0.0416,0.0432,0.0508,0.0528,0.057,0.0625,0.0647,0.0709,0.0765,0.0811,0.0819,0.0878,0.0868,0.0908,0.0854,0.0843,0.0834,0.0792,0.0821,0.0808,0.0949,0.0949,0.0949,0,0,0.0292,0.0335,0.0341,0.0398,0.0436,0.0427,0.0522,0.0537,0.0527,0.065,0.0654,0.0741,0.081,0.0821,0.0831,0.0841,0.0823,0.0832,0.0823,0.0786,0.0818,0.0804,0.0792,0.0948,0.0948,0.0948,0,0,0.0205,0.0261,0.0232,0.026,0.0308,0.0357,0.0355,0.0432,0.0463,0.0492,0.058,0.063,0.0703,0.0734,0.076,0.0717,0.0786,0.0747,0.0612,0.0641,0.0629,0.0619,0.0679,0.0675,0.0716,0.0715,0.0715,0,0.0152,0.0137,0.0226,0.0195,0.0202,0.0313,0.0271,0.0309,0.039,0.041,0.0472,0.0588,0.065,0.0643,0.0633,0.0685,0.0732,0.0651,0.0623,0.0614,0.0605,0.067,0.0667,0.0708,0.0709,0.071,0.071,0,0.0048,0.0026,0.0004,0.0011,0.0031,0.0014,0.0084,0.011,0.0181,0.0239,0.029,0.0394,0.0457,0.0488,0.0542,0.051,0.0577,0.0626,0.0645,0.0582,0.0656,0.0655,0.0698,0.0701,0.0703,0.0704,0,0,-0.0046,-0.0067,-0.0075,-0.0099,-0.0065,-0.0053,-0.0077,-0.0044,-0.0038,0.0047,0.0062,0.0134,0.0224,0.0257,0.0344,0.035,0.0351,0.044,0.0445,0.0479,0.044,0.0521,0.053,0.0399,0.0398,0.0396,0.0526,0,-0.0158,-0.0258,-0.0226,-0.0309,-0.0351,-0.0265,-0.028,-0.0233,-0.0155,-0.0105,-0.0013,0.0054,0.0124,0.0179,0.0184,0.0341,0.0339,0.0312,0.0512,0.0518,0.058,0.0527,0.0583,0.0704,0.0526,0.0526,0.0526,0,-0.0265,-0.0317,-0.0428,-0.045,-0.0454,-0.0477,-0.0441,-0.0437,-0.0355,-0.0288,-0.023,-0.011,-0.0069,0.0016,0.0146,0.0135,0.0244,0.0345,0.0355,0.0465,0.0595,0.0736,0.0712,0.087,0.0526,0.0526,0.0526,0,-0.0355,-0.0442,-0.053,-0.0545,-0.0562,-0.0576,-0.0558,-0.0494,-0.0471,-0.0392,-0.0341,-0.026,-0.017,-0.0068,0.0149,0.0151,0.0321,0.0364,0.0524,0.0534,0.0634,0.0654,0.076,0.0404,0.0404,0.0404,0.0403,0,-0.0468,-0.0534,-0.0578,-0.0628,-0.0697,-0.066,-0.0686,-0.0648,-0.0582,-0.0543,-0.0438,-0.0368,-0.0187,-0.004,0.0111,0.0331,0.0293,0.0476,0.0553,0.0593,0.0607,0.0793,0.0849,0.0409,0.0408,0.0407,0.0406,0,-0.0543,-0.0585,-0.0686,-0.0737,-0.0748,-0.0784,-0.0764,-0.0765,-0.0694,-0.0637,-0.0609,-0.0437,-0.0232,-0.0039,0.0192,0.0316,0.0615,0.0583,0.0635,0.0712,0.0985,0.103,0.1187,0.129,0.076,0.0762,0.0764,0,-0.0584,-0.0653,-0.0758,-0.0811,-0.0837,-0.0875,-0.0888,-0.0833,-0.0812,-0.0657,-0.0627,-0.0419,-0.0227,0.0134,0.0378,0.0644,0.0747,0.0836,0.0815,0.098,0.1088,0.1115,0.1191,0.0918,0.0921,0.0923,0.0925,0,-0.0656,-0.0697,-0.0776,-0.089,-0.0941,-0.0983,-0.0985,-0.0977,-0.0872,-0.075,-0.055,-0.0375,-0.0049,0.0303,0.0623,0.0776,0.096,0.0896,0.1047,0.1179,0.1233,0.1378,0.0878,0.0948,0.0946,0.0944,0.0943,0.0942,-0.0677,-0.075,-0.0846,-0.0937,-0.1006,-0.1032,-0.1011,-0.0949,-0.0825,-0.0566,-0.0434,-0.0051,0.0288,0.0762,0.0914,0.1232,0.117,0.1341,0.1376,0.1383,0.1482,0.1035,0.12,0.12,0.1199,0.1198,0.1198,0,-0.0673,-0.0755,-0.0868,-0.0959,-0.1007,-0.1038,-0.1019,-0.0921,-0.0697,-0.0442,-0.0134,0.0482,0.0871,0.1149,0.1518,0.1705,0.1731,0.1795,0.1837,0.1888,0.1489,0.1496,0.1757,0.1757,0.1757,0.1757,0.1756,0.1756,-0.0669,-0.077,-0.0836,-0.0907,-0.0955,-0.0929,-0.0888,-0.0708,-0.0505,0.001,0.0452,0.0764,0.1191,0.1749,0.2098,0.2128,0.2293,0.227,0.2356,0.2076,0.2036,0.1997,0.2018,0.2384,0.2384,0.2758,0.2762,0.2764]}],[{"header":{"parameterUnit":"m.s-1","parameterCategory":2,"la1":30.2991,"la2":30.254,"lo1":-89.0895,"lo2":-89.0444,"dy":0.0017,"dx":0.0017,"nx":28,"ny":28,"refTime":"2025-06-14T09:00:00:Z","depth":"2","parameterNumber":2,"parameterNumberName":"U-component_of_CURRENTS"},"data":[0,0,0,0,0,0,0,0,0,0,0,0,0,0,0,0,0,0,0,0,0,0,0,0,0,0,0,0,0,0,0,0,0,0,0,0,0,0,0,0,0,0,0,0,0,0,0,0,0,0,0,0,0,0,0,0,0,0,-0.2249,-0.225,0,-0.2302,-0.2302,-0.2302,-0.2268,-0.2267,-0.2266,-0.2265,-0.2297,-0.2299,-0.2301,0,0,0,0,0,0,0,0,0,0,0,0,0,-0.213,-0.2132,-0.2249,-0.225,-0.2251,-0.2302,-0.2302,-0.2303,-0.2268,-0.2267,-0.2266,-0.2265,-0.2297,-0.2299,-0.2301,0,0,0,0,0,0,0,0,0,0,0,0,0,-0.2177,-0.2133,-0.2249,-0.2244,-0.2245,-0.2302,-0.2302,-0.2303,-0.2269,-0.2267,-0.2265,-0.2264,-0.2296,-0.2299,-0.2302,-0.2352,0,0,-0.231,-0.2311,0,0,0,0,0,0,0,0,-0.2175,-0.2181,-0.2244,-0.2245,-0.2246,-0.2282,-0.2273,-0.232,-0.2269,-0.2254,-0.2265,-0.2263,-0.2295,-0.2298,-0.2304,-0.2354,-0.2355,-0.231,-0.2312,-0.2313,-0.2314,0,0,0,0,0,0,0,-0.2172,-0.2179,-0.2265,-0.2245,-0.2247,-0.2244,-0.2248,-0.2281,-0.2279,-0.2255,-0.2254,-0.2269,-0.2294,-0.2301,-0.2305,-0.2356,-0.231,-0.2313,-0.2315,-0.2316,-0.2422,-0.2423,0,0,0,0,0,0,-0.2177,-0.2176,-0.2263,-0.2267,-0.2211,-0.2248,-0.2252,-0.2267,-0.2279,-0.2281,-0.2271,-0.2267,-0.2297,-0.2301,-0.2306,-0.2347,-0.2313,-0.2316,-0.2318,-0.2421,-0.2422,-0.2423,0,0,0,0,0,0,-0.2175,-0.2185,-0.2261,-0.2226,-0.2237,-0.2252,-0.2269,-0.2269,-0.2281,-0.2292,-0.2291,-0.2283,-0.2296,-0.2302,-0.2334,-0.2348,-0.2317,-0.232,-0.2419,-0.2421,-0.2423,-0.2442,0,0,0,0,0,0,-0.2171,-0.2183,-0.2194,-0.2227,-0.2239,-0.2299,-0.2271,-0.2272,-0.2295,-0.2291,-0.2303,-0.2303,-0.2295,-0.233,-0.2337,-0.2352,-0.2322,-0.2418,-0.242,-0.2422,-0.244,-0.2444,-0.2448,0,0,0,0,0,-0.2166,-0.2188,-0.2194,-0.2204,-0.2254,-0.2301,-0.2307,-0.2308,-0.2298,-0.231,-0.2312,-0.2303,-0.2347,-0.2334,-0.2341,-0.2357,-0.2417,-0.2419,-0.2422,-0.2438,-0.2443,-0.2448,0,0,0,0,0,0,-0.2139,-0.2189,-0.2195,-0.2229,-0.2266,-0.2297,-0.2313,-0.2321,-0.2335,-0.2332,-0.2326,-0.2328,-0.2357,-0.2365,-0.2349,-0.2394,-0.2378,-0.2383,-0.2388,-0.2393,-0.2397,-0.239,-0.2325,0,0,0,0,0,-0.2142,-0.2168,-0.2218,-0.2243,-0.2265,-0.2293,-0.2312,-0.2324,-0.2345,-0.2349,-0.2357,-0.2366,-0.2377,-0.2389,-0.2402,-0.2442,-0.2425,-0.2455,-0.2459,-0.2463,-0.2463,-0.2449,-0.2451,-0.2431,-0.2431,-0.2431,0,0,-0.2138,-0.217,-0.2184,-0.224,-0.2264,-0.2306,-0.2299,-0.2342,-0.2367,-0.2355,-0.2384,-0.2385,-0.239,-0.2416,-0.2431,-0.2424,-0.246,-0.2466,-0.2468,-0.2467,-0.2452,-0.2453,-0.2455,-0.2433,-0.2433,-0.2432,0,0,-0.2151,-0.2175,-0.2205,-0.2244,-0.23,-0.2321,-0.2339,-0.2386,-0.2393,-0.2433,-0.2418,-0.2428,-0.2461,-0.2456,-0.2459,-0.2501,-0.2479,-0.251,-0.2529,-0.2516,-0.2517,-0.2517,-0.2495,-0.2494,-0.2515,-0.2515,-0.2515,0,-0.2144,-0.219,-0.2221,-0.2267,-0.2298,-0.2331,-0.2374,-0.2398,-0.2445,-0.2452,-0.2444,-0.2469,-0.2474,-0.2491,-0.2497,-0.2508,-0.2494,-0.2508,-0.2519,-0.2519,-0.2519,-0.2496,-0.2494,-0.2516,-0.2516,-0.2516,-0.2516,0,-0.2182,-0.2225,-0.2249,-0.2311,-0.2347,-0.2393,-0.2439,-0.2468,-0.2479,-0.2494,-0.2516,-0.2518,-0.2524,-0.2531,-0.2527,-0.2538,-0.2525,-0.252,-0.2501,-0.2522,-0.2497,-0.2494,-0.2518,-0.2518,-0.2517,-0.2517,0,0,-0.2142,-0.2255,-0.2259,-0.2296,-0.2376,-0.2406,-0.2456,-0.25,-0.2517,-0.2547,-0.2555,-0.2572,-0.2564,-0.2567,-0.2564,-0.2558,-0.2545,-0.2544,-0.2543,-0.2512,-0.2508,-0.2422,-0.2411,-0.254,-0.254,-0.2539,-0.2488,0,-0.2158,-0.2244,-0.2294,-0.2361,-0.2408,-0.2456,-0.2493,-0.2535,-0.2556,-0.2573,-0.2574,-0.2582,-0.2582,-0.2579,-0.2575,-0.2554,-0.254,-0.2559,-0.2502,-0.25,-0.2412,-0.2406,-0.2232,-0.2165,-0.2485,-0.2485,-0.2485,0,-0.2164,-0.2226,-0.23,-0.2387,-0.2408,-0.2446,-0.2494,-0.2536,-0.2573,-0.2588,-0.26,-0.2599,-0.2603,-0.259,-0.2565,-0.2577,-0.2545,-0.2524,-0.2521,-0.2431,-0.2409,-0.2198,-0.2148,-0.248,-0.248,-0.2481,-0.2481,0,-0.2102,-0.2214,-0.2268,-0.2303,-0.2412,-0.2436,-0.2476,-0.2528,-0.2556,-0.2588,-0.26,-0.2608,-0.2603,-0.2578,-0.2544,-0.2553,-0.2498,-0.2503,-0.2394,-0.2388,-0.2223,-0.2202,-0.2471,-0.2471,-0.2471,-0.2471,-0.2471,0,-0.2087,-0.2125,-0.2243,-0.2275,-0.2318,-0.24,-0.2435,-0.2477,-0.2532,-0.2551,-0.2594,-0.2596,-0.2599,-0.2573,-0.254,-0.2451,-0.2493,-0.2387,-0.2365,-0.2225,-0.2206,-0.247,-0.247,-0.2469,-0.2469,-0.247,-0.247,0,-0.2004,-0.2091,-0.2153,-0.2266,-0.2294,-0.2314,-0.2405,-0.2427,-0.2499,-0.2522,-0.2531,-0.2579,-0.2538,-0.2523,-0.2472,-0.2431,-0.2364,-0.232,-0.2153,-0.2111,-0.2265,-0.2268,-0.2194,-0.219,-0.2187,-0.2185,-0.2183,0,-0.1973,-0.2002,-0.2114,-0.2134,-0.2182,-0.2238,-0.2271,-0.2379,-0.2411,-0.2496,-0.2491,-0.2489,-0.2438,-0.2345,-0.2263,-0.2168,-0.2261,-0.1979,-0.1963,-0.2249,-0.2236,-0.2243,-0.2249,-0.1755,-0.1749,-0.1745,-0.1741,0,-0.1896,-0.1932,-0.1976,-0.2027,-0.2067,-0.2119,-0.2181,-0.2206,-0.2321,-0.2352,-0.2355,-0.232,-0.2241,-0.2058,-0.1963,-0.1896,-0.1983,-0.1884,-0.2209,-0.1857,-0.1832,-0.182,-0.1841,-0.1702,-0.1705,-0.1708,-0.1711,-0.1712,-0.1808,-0.1808,-0.1859,-0.1887,-0.1933,-0.1956,-0.1941,-0.2023,-0.2048,-0.2058,-0.2144,-0.2042,-0.1999,-0.1741,-0.1636,-0.1565,-0.1702,-0.1641,-0.1656,-0.1676,-0.1639,-0.161,-0.1431,-0.1434,-0.1436,-0.1437,-0.1439,0,-0.1691,-0.1696,-0.1713,-0.1739,-0.172,-0.1801,-0.1838,-0.1795,-0.1762,-0.1818,-0.1798,-0.1598,-0.1464,-0.1428,-0.1244,-0.1206,-0.1207,-0.1167,-0.1174,-0.1213,-0.1248,-0.1192,-0.0865,-0.0863,-0.0862,-0.086,0,0,-0.1627,-0.1589,-0.1595,-0.1511,-0.152,-0.1447,-0.1429,-0.1397,-0.1396,-0.1338,-0.1307,-0.1406,-0.1391,-0.1142,-0.1069,-0.0936,-0.1069,-0.0888,-0.1346,-0.1393,-0.1427,-0.1515,-0.147,0,0,0,0,0]},{"header":{"parameterUnit":"m.s-1","parameterCategory":2,"la1":30.2991,"la2":30.254,"lo1":-89.0895,"lo2":-89.0444,"dy":0.0017,"dx":0.0017,"nx":28,"ny":28,"refTime":"2025-06-14T09:00:00:Z","depth":"2","parameterNumber":3,"parameterNumberName":"V-component_of_CURRENTS"},"data":[0,0,0,0,0,0,0,0,0,0,0,0,0,0,0,0,0,0,0,0,0,0,0,0,0,0,0,0,0,0,0,0,0,0,0,0,0,0,0,0,0,0,0,0,0,0,0,0,0,0,0,0,0,0,0,0,0,0,-0.0422,-0.0422,0,-0.0367,-0.0366,-0.0366,-0.0333,-0.0333,-0.0333,-0.0332,-0.0209,-0.0206,-0.0203,0,0,0,0,0,0,0,0,0,0,0,0,0,-0.0449,-0.0449,-0.0423,-0.0422,-0.0421,-0.0367,-0.0366,-0.0366,-0.0333,-0.0333,-0.0333,-0.0332,-0.021,-0.0206,-0.0203,0,0,0,0,0,0,0,0,0,0,0,0,0,-0.0422,-0.0449,-0.0423,-0.0396,-0.0393,-0.0367,-0.0366,-0.0365,-0.0333,-0.0333,-0.0332,-0.0332,-0.0211,-0.0206,-0.0202,-0.0186,0,0,-0.0189,-0.0187,0,0,0,0,0,0,0,0,-0.0424,-0.0422,-0.0401,-0.0398,-0.0394,-0.0354,-0.033,-0.0301,-0.0334,-0.0359,-0.0332,-0.0332,-0.025,-0.0242,-0.0237,-0.018,-0.0175,-0.0188,-0.0185,-0.0184,-0.0182,0,0,0,0,0,0,0,-0.0426,-0.0424,-0.0403,-0.04,-0.0396,-0.0369,-0.0365,-0.0325,-0.0309,-0.0357,-0.0353,-0.0343,-0.0248,-0.0242,-0.0234,-0.0173,-0.0188,-0.0184,-0.0182,-0.018,-0.0066,-0.0066,0,0,0,0,0,0,-0.0431,-0.0426,-0.0405,-0.0401,-0.0405,-0.0369,-0.0365,-0.037,-0.0311,-0.0301,-0.0344,-0.0342,-0.025,-0.0239,-0.0229,-0.0181,-0.0184,-0.0179,-0.0177,-0.0066,-0.0066,-0.0065,0,0,0,0,0,0,-0.0432,-0.043,-0.0407,-0.0409,-0.0404,-0.0369,-0.0375,-0.0369,-0.0358,-0.0301,-0.029,-0.0338,-0.0249,-0.0236,-0.0195,-0.0176,-0.0177,-0.0173,-0.0067,-0.0066,-0.0066,-0.0099,0,0,0,0,0,0,-0.0434,-0.0432,-0.0438,-0.041,-0.0404,-0.0392,-0.0375,-0.0368,-0.0351,-0.0349,-0.0292,-0.0281,-0.0247,-0.0202,-0.0191,-0.017,-0.017,-0.0067,-0.0066,-0.0066,-0.0099,-0.01,-0.0101,0,0,0,0,0,-0.0435,-0.0451,-0.0439,-0.0436,-0.0414,-0.0392,-0.0387,-0.0361,-0.0352,-0.035,-0.0314,-0.0282,-0.0189,-0.0199,-0.0185,-0.0163,-0.0068,-0.0067,-0.0066,-0.0098,-0.01,-0.0101,0,0,0,0,0,0,-0.0466,-0.0448,-0.0434,-0.0444,-0.0417,-0.0386,-0.0383,-0.0363,-0.0336,-0.0331,-0.0282,-0.0268,-0.0224,-0.0192,-0.0204,-0.0129,-0.0121,-0.0118,-0.015,-0.0151,-0.0152,-0.0151,-0.0166,0,0,0,0,0,-0.0476,-0.0483,-0.0452,-0.0458,-0.0448,-0.0415,-0.0403,-0.0384,-0.0353,-0.0342,-0.0301,-0.0255,-0.0211,-0.0182,-0.0143,-0.0103,-0.0066,-0.0079,-0.008,-0.0082,-0.0072,-0.0011,-0.0005,-0.0063,-0.0063,-0.0063,0,0,-0.0489,-0.0479,-0.0483,-0.0464,-0.0445,-0.0429,-0.0408,-0.0392,-0.037,-0.033,-0.0295,-0.0259,-0.0203,-0.0161,-0.0137,-0.013,-0.0047,-0.0081,-0.0082,-0.0071,-0.0009,-0.0003,0.0002,-0.0062,-0.0062,-0.0062,0,0,-0.0514,-0.0511,-0.052,-0.0499,-0.0468,-0.0444,-0.044,-0.0404,-0.0383,-0.0348,-0.031,-0.0264,-0.0205,-0.0155,-0.0123,-0.0105,-0.006,-0.0095,-0.0091,-0.0033,-0.0028,-0.0022,0.0024,0.0034,-0.0091,-0.0091,-0.0091,0,-0.0529,-0.0535,-0.0517,-0.051,-0.0493,-0.0452,-0.0445,-0.0414,-0.0368,-0.0347,-0.0341,-0.0243,-0.0196,-0.0127,-0.0121,-0.0104,-0.0074,-0.0093,-0.0035,-0.0029,-0.0023,0.0024,0.0035,-0.0092,-0.0092,-0.0092,-0.0092,0,-0.0552,-0.0549,-0.0553,-0.053,-0.051,-0.05,-0.0451,-0.0428,-0.0399,-0.0362,-0.0301,-0.0242,-0.0183,-0.0157,-0.0131,-0.0062,-0.0056,-0.0049,-0.0033,-0.0019,0.0029,0.0041,-0.0094,-0.0094,-0.0093,-0.0093,0,0,-0.0604,-0.0576,-0.0576,-0.0569,-0.0521,-0.0513,-0.0471,-0.0427,-0.0406,-0.0346,-0.031,-0.0223,-0.0194,-0.0155,-0.011,-0.005,0.0017,-0.0035,-0.0031,0.0007,0.0137,0.0164,0.0181,0.0029,0.0031,0.0033,0.015,0,-0.0626,-0.063,-0.06,-0.0592,-0.0588,-0.0536,-0.0505,-0.0455,-0.041,-0.0365,-0.028,-0.0231,-0.019,-0.0168,-0.0099,-0.0016,0.0049,-0.0016,0.0122,0.0126,0.0146,0.0196,0.0169,0.0274,0.0162,0.0164,0.0166,0,-0.0656,-0.0654,-0.0658,-0.063,-0.0624,-0.0609,-0.0565,-0.053,-0.0445,-0.041,-0.0335,-0.0274,-0.0169,-0.0147,0.002,-0.0028,0.0056,0.0124,0.013,0.0179,0.0177,0.0245,0.03,0.0187,0.0185,0.0183,0.0182,0,-0.0714,-0.0695,-0.0704,-0.0693,-0.0652,-0.0644,-0.062,-0.055,-0.0525,-0.0437,-0.0411,-0.0284,-0.0223,-0.0098,0.0049,0.0033,0.0228,0.0221,0.0331,0.0333,0.0353,0.0353,0.0349,0.0349,0.0349,0.0348,0.0348,0,-0.0754,-0.0759,-0.0738,-0.0744,-0.0758,-0.0704,-0.0701,-0.0659,-0.059,-0.0553,-0.0445,-0.038,-0.0207,-0.0075,0.005,0.0235,0.0234,0.0353,0.0377,0.0339,0.0337,0.0293,0.0285,0.0353,0.0352,0.0351,0.035,0,-0.0811,-0.0794,-0.0809,-0.0789,-0.0788,-0.0801,-0.0771,-0.0762,-0.0688,-0.0635,-0.0607,-0.0442,-0.0262,-0.0086,0.013,0.0236,0.0404,0.047,0.041,0.0426,0.0466,0.0455,0.0604,0.0606,0.0608,0.0609,0.0611,0,-0.0838,-0.0853,-0.0865,-0.0888,-0.0883,-0.089,-0.0894,-0.0827,-0.0805,-0.0662,-0.0636,-0.0448,-0.0294,0.0028,0.0247,0.048,0.0473,0.0583,0.056,0.049,0.0499,0.0484,0.0471,0.0568,0.0569,0.0569,0.057,0,-0.0889,-0.0897,-0.0916,-0.0973,-0.0994,-0.1006,-0.0997,-0.0994,-0.0892,-0.0813,-0.0658,-0.0517,-0.0192,0.008,0.0373,0.0502,0.054,0.0605,0.0573,0.0501,0.0465,0.047,0.0456,0.0576,0.0576,0.0575,0.0575,0.0575,-0.0928,-0.0965,-0.1002,-0.1051,-0.1084,-0.1106,-0.1112,-0.1068,-0.1008,-0.0867,-0.0706,-0.0469,-0.0183,0.0237,0.0451,0.0634,0.0633,0.0674,0.0669,0.0663,0.0632,0.0601,0.0731,0.0732,0.0732,0.0732,0.0732,0,-0.0971,-0.1014,-0.1075,-0.1132,-0.118,-0.1171,-0.1164,-0.1128,-0.1047,-0.0879,-0.0701,-0.0373,-0.0058,0.0219,0.0526,0.0717,0.0687,0.0732,0.0661,0.0655,0.0649,0.0614,0.071,0.0711,0.0711,0.0711,0,0,-0.0996,-0.1066,-0.11,-0.1196,-0.1234,-0.1259,-0.1248,-0.1161,-0.1029,-0.0843,-0.0658,-0.0419,-0.0041,0.0165,0.0413,0.0571,0.0555,0.0576,0.0577,0.0459,0.0451,0.0606,0.0544,0,0,0,0,0]}],[{"header":{"parameterUnit":"m.s-1","parameterCategory":2,"la1":30.2991,"la2":30.254,"lo1":-89.0895,"lo2":-89.0444,"dy":0.0017,"dx":0.0017,"nx":28,"ny":28,"refTime":"2025-06-14T09:00:00:Z","depth":"4","parameterNumber":2,"parameterNumberName":"U-component_of_CURRENTS"},"data":[0,0,0,0,0,0,0,0,0,0,0,0,0,0,0,0,0,0,0,0,0,0,0,0,0,0,0,0,0,0,0,0,0,0,0,0,0,0,0,0,0,0,0,0,0,0,0,0,0,0,0,0,0,0,0,0,0,0,-0.1533,-0.1534,0,-0.1595,-0.1596,-0.1596,-0.1621,-0.1621,-0.1621,-0.1621,-0.17,-0.1702,-0.1704,0,0,0,0,0,0,0,0,0,0,0,0,0,-0.144,-0.1442,-0.1533,-0.1534,-0.1535,-0.1595,-0.1596,-0.1597,-0.1621,-0.1621,-0.1621,-0.1621,-0.1699,-0.1702,-0.1705,0,0,0,0,0,0,0,0,0,0,0,0,0,-0.1488,-0.1442,-0.1533,-0.1555,-0.1558,-0.1595,-0.1596,-0.1597,-0.1621,-0.1621,-0.1621,-0.1621,-0.1699,-0.1702,-0.1705,-0.1727,0,0,-0.1715,-0.1716,0,0,0,0,0,0,0,0,-0.1485,-0.1491,-0.1551,-0.1554,-0.1557,-0.1601,-0.1592,-0.1641,-0.1621,-0.1596,-0.1621,-0.1621,-0.167,-0.1675,-0.1685,-0.173,-0.1734,-0.1715,-0.1717,-0.1719,-0.1719,0,0,0,0,0,0,0,-0.1482,-0.1489,-0.1557,-0.1552,-0.1556,-0.1564,-0.157,-0.1602,-0.1632,-0.1598,-0.16,-0.1609,-0.1671,-0.1682,-0.1687,-0.1735,-0.1715,-0.1718,-0.172,-0.1721,-0.1846,-0.1847,0,0,0,0,0,0,-0.1477,-0.1486,-0.1555,-0.1559,-0.1522,-0.1565,-0.1573,-0.1586,-0.1631,-0.1638,-0.1609,-0.161,-0.1676,-0.1683,-0.169,-0.1774,-0.1719,-0.1722,-0.1723,-0.1844,-0.1846,-0.1847,0,0,0,0,0,0,-0.1475,-0.1483,-0.1552,-0.1524,-0.1534,-0.1567,-0.1582,-0.1587,-0.1623,-0.1639,-0.1647,-0.1641,-0.1677,-0.1686,-0.1739,-0.1775,-0.1723,-0.1726,-0.1843,-0.1845,-0.1847,-0.1905,0,0,0,0,0,0,-0.1472,-0.1482,-0.1502,-0.1524,-0.1535,-0.1588,-0.1582,-0.1589,-0.1627,-0.163,-0.1669,-0.1675,-0.1677,-0.1735,-0.1743,-0.1778,-0.1729,-0.1841,-0.1844,-0.1846,-0.1901,-0.1909,-0.1915,0,0,0,0,0,-0.1468,-0.149,-0.1502,-0.1511,-0.1558,-0.159,-0.1597,-0.1618,-0.1629,-0.1649,-0.1678,-0.1675,-0.1756,-0.1739,-0.1748,-0.1785,-0.184,-0.1843,-0.1846,-0.1898,-0.1907,-0.1915,0,0,0,0,0,0,-0.1461,-0.1495,-0.1509,-0.1541,-0.1571,-0.1594,-0.162,-0.1636,-0.1675,-0.1687,-0.1699,-0.1708,-0.1764,-0.1768,-0.1749,-0.1826,-0.1795,-0.18,-0.1832,-0.1841,-0.1848,-0.1849,-0.1731,0,0,0,0,0,-0.1469,-0.1495,-0.1527,-0.1556,-0.1574,-0.1604,-0.1626,-0.1643,-0.1675,-0.1693,-0.1722,-0.1752,-0.178,-0.1806,-0.1828,-0.1881,-0.1864,-0.1908,-0.1915,-0.1921,-0.1928,-0.193,-0.1938,-0.1857,-0.1857,-0.1857,0,0,-0.1474,-0.1497,-0.1514,-0.1557,-0.1584,-0.1623,-0.1618,-0.166,-0.1699,-0.1697,-0.1767,-0.178,-0.1798,-0.1849,-0.1875,-0.1862,-0.1933,-0.1924,-0.1929,-0.1934,-0.1934,-0.1942,-0.1949,-0.1859,-0.1859,-0.1859,0,0,-0.149,-0.1522,-0.1549,-0.1582,-0.1629,-0.1651,-0.167,-0.1714,-0.1742,-0.1803,-0.1807,-0.1846,-0.1898,-0.1915,-0.1929,-0.1991,-0.1965,-0.1999,-0.2045,-0.2048,-0.2054,-0.206,-0.2039,-0.2042,-0.2007,-0.2007,-0.2007,0,-0.1498,-0.154,-0.1562,-0.1601,-0.1639,-0.1669,-0.1715,-0.1748,-0.1805,-0.1834,-0.1834,-0.191,-0.1929,-0.1982,-0.2003,-0.2008,-0.1993,-0.2012,-0.2056,-0.2061,-0.2066,-0.2043,-0.2046,-0.201,-0.201,-0.201,-0.2009,0,-0.1528,-0.1579,-0.1602,-0.1663,-0.1702,-0.175,-0.1797,-0.1844,-0.1882,-0.1909,-0.1975,-0.1996,-0.2036,-0.205,-0.2051,-0.2099,-0.2072,-0.2059,-0.2033,-0.2077,-0.205,-0.2052,-0.2015,-0.2014,-0.2013,-0.2012,0,0,-0.1502,-0.1605,-0.1617,-0.1663,-0.1747,-0.1777,-0.1852,-0.1918,-0.1961,-0.2014,-0.2063,-0.212,-0.2123,-0.2138,-0.2142,-0.2155,-0.2175,-0.2129,-0.2127,-0.2104,-0.2163,-0.2012,-0.1999,-0.2168,-0.2169,-0.217,-0.2127,0,-0.1527,-0.1611,-0.1659,-0.1749,-0.18,-0.1862,-0.1923,-0.1984,-0.2032,-0.2083,-0.2112,-0.2156,-0.2158,-0.2176,-0.2193,-0.2178,-0.2184,-0.2186,-0.2127,-0.2125,-0.1982,-0.1997,-0.2173,-0.2128,-0.2129,-0.2129,-0.2129,0,-0.1534,-0.1597,-0.1691,-0.18,-0.1828,-0.1886,-0.1985,-0.2042,-0.2113,-0.2147,-0.2195,-0.2207,-0.2248,-0.223,-0.2237,-0.2237,-0.2211,-0.2193,-0.219,-0.203,-0.1977,-0.2078,-0.2132,-0.2131,-0.2131,-0.2131,-0.2131,0,-0.1489,-0.1614,-0.1692,-0.1734,-0.1859,-0.1915,-0.1979,-0.2063,-0.2108,-0.2182,-0.2209,-0.2254,-0.2271,-0.2262,-0.2234,-0.2239,-0.2211,-0.2207,-0.2046,-0.2034,-0.2159,-0.2153,-0.2206,-0.2206,-0.2206,-0.2206,-0.2206,0,-0.148,-0.1544,-0.1684,-0.1727,-0.1813,-0.1904,-0.1987,-0.2051,-0.2131,-0.2166,-0.2234,-0.2245,-0.2281,-0.2266,-0.2238,-0.2132,-0.2213,-0.2048,-0.2014,-0.2183,-0.2181,-0.2159,-0.2154,-0.2204,-0.2205,-0.2205,-0.2205,0,-0.1407,-0.1506,-0.1599,-0.1747,-0.1794,-0.185,-0.1981,-0.2022,-0.2117,-0.216,-0.2182,-0.2242,-0.221,-0.2212,-0.2182,-0.2113,-0.2043,-0.1987,-0.2153,-0.213,-0.1866,-0.1865,-0.1801,-0.1795,-0.1791,-0.1787,-0.1783,0,-0.1375,-0.1421,-0.1585,-0.1631,-0.1703,-0.1806,-0.1861,-0.1992,-0.2028,-0.213,-0.2125,-0.2142,-0.2156,-0.1978,-0.201,-0.1925,-0.1905,-0.1866,-0.1884,-0.1851,-0.1825,-0.1832,-0.1837,-0.1776,-0.1774,-0.1773,-0.1772,0,-0.1305,-0.1376,-0.1444,-0.1541,-0.162,-0.1697,-0.179,-0.1805,-0.193,-0.2044,-0.1995,-0.1959,-0.1911,-0.1863,-0.1803,-0.1754,-0.1892,-0.1816,-0.1826,-0.1842,-0.182,-0.18,-0.1811,-0.1755,-0.1757,-0.1759,-0.176,0,-0.124,-0.1264,-0.1355,-0.1421,-0.151,-0.1541,-0.1621,-0.1656,-0.1709,-0.1833,-0.1808,-0.1822,-0.1884,-0.1772,-0.1722,-0.1651,-0.1631,-0.1589,-0.1611,-0.163,-0.1593,-0.154,-0.1352,0,0,0,0,0,-0.1168,-0.1173,-0.1223,-0.1288,-0.1365,-0.1414,-0.1541,-0.1622,-0.1756,-0.1669,-0.1733,-0.1676,-0.1595,-0.1608,-0.1493,-0.1643,-0.1639,-0.1506,-0.1605,-0.1662,-0.1682,-0.1653,0,0,0,0,0,0,-0.1118,-0.1158,-0.1174,-0.1149,-0.1157,-0.1231,-0.1302,-0.1403,-0.1371,-0.1504,-0.1457,-0.1563,-0.1497,-0.1606,-0.1446,-0.1451,-0.1479,-0.1533,-0.1528,-0.1651,-0.1669,-0.1684,-0.1662,0,0,0,0,0]},{"header":{"parameterUnit":"m.s-1","parameterCategory":2,"la1":30.2991,"la2":30.254,"lo1":-89.0895,"lo2":-89.0444,"dy":0.0017,"dx":0.0017,"nx":28,"ny":28,"refTime":"2025-06-14T09:00:00:Z","depth":"4","parameterNumber":3,"parameterNumberName":"V-component_of_CURRENTS"},"data":[0,0,0,0,0,0,0,0,0,0,0,0,0,0,0,0,0,0,0,0,0,0,0,0,0,0,0,0,0,0,0,0,0,0,0,0,0,0,0,0,0,0,0,0,0,0,0,0,0,0,0,0,0,0,0,0,0,0,-0.033,-0.0329,0,-0.0302,-0.0301,-0.0301,-0.0278,-0.0278,-0.0278,-0.0278,-0.0203,-0.0202,-0.02,0,0,0,0,0,0,0,0,0,0,0,0,0,-0.0324,-0.0325,-0.033,-0.0329,-0.0329,-0.0302,-0.0301,-0.0301,-0.0278,-0.0278,-0.0278,-0.0278,-0.0204,-0.0202,-0.02,0,0,0,0,0,0,0,0,0,0,0,0,0,-0.0314,-0.0325,-0.033,-0.0315,-0.0313,-0.0302,-0.0301,-0.0301,-0.0278,-0.0278,-0.0278,-0.0277,-0.0205,-0.0202,-0.0199,-0.0189,0,0,-0.0191,-0.019,0,0,0,0,0,0,0,0,-0.0315,-0.0314,-0.0317,-0.0316,-0.0314,-0.0293,-0.0272,-0.0261,-0.0278,-0.0291,-0.0278,-0.0277,-0.0229,-0.0225,-0.0221,-0.0186,-0.0182,-0.0191,-0.0189,-0.0188,-0.0187,0,0,0,0,0,0,0,-0.0316,-0.0315,-0.0318,-0.0317,-0.0315,-0.0296,-0.0294,-0.027,-0.0261,-0.029,-0.0289,-0.0286,-0.0228,-0.0223,-0.0218,-0.0181,-0.0191,-0.0189,-0.0187,-0.0186,-0.0124,-0.0124,0,0,0,0,0,0,-0.0322,-0.0316,-0.0319,-0.0318,-0.0314,-0.0296,-0.0295,-0.03,-0.0263,-0.0257,-0.0286,-0.0285,-0.0228,-0.0222,-0.0216,-0.0188,-0.0188,-0.0186,-0.0184,-0.0124,-0.0124,-0.0124,0,0,0,0,0,0,-0.0322,-0.0323,-0.032,-0.0316,-0.0314,-0.0297,-0.0303,-0.03,-0.0298,-0.026,-0.0254,-0.0288,-0.0227,-0.0219,-0.0198,-0.0185,-0.0184,-0.0182,-0.0124,-0.0124,-0.0124,-0.014,0,0,0,0,0,0,-0.0322,-0.0323,-0.0331,-0.0317,-0.0315,-0.0321,-0.0303,-0.0299,-0.0296,-0.0294,-0.0259,-0.0252,-0.0227,-0.0202,-0.0196,-0.0181,-0.018,-0.0124,-0.0124,-0.0124,-0.0139,-0.014,-0.0141,0,0,0,0,0,-0.0322,-0.0339,-0.0332,-0.0333,-0.0326,-0.0322,-0.0319,-0.0305,-0.0297,-0.0301,-0.0275,-0.0253,-0.0197,-0.0201,-0.0192,-0.0177,-0.0124,-0.0124,-0.0124,-0.0139,-0.014,-0.0141,0,0,0,0,0,0,-0.0341,-0.0337,-0.033,-0.0344,-0.0336,-0.0318,-0.0322,-0.031,-0.0294,-0.0292,-0.0255,-0.0246,-0.022,-0.0202,-0.0207,-0.016,-0.0156,-0.0154,-0.017,-0.0171,-0.0172,-0.0163,-0.0178,0,0,0,0,0,-0.0349,-0.0361,-0.0348,-0.036,-0.0357,-0.034,-0.0337,-0.0328,-0.0311,-0.0304,-0.0278,-0.0247,-0.0213,-0.0197,-0.0171,-0.0148,-0.0113,-0.0133,-0.0134,-0.0135,-0.0123,-0.0058,-0.0052,-0.0124,-0.0124,-0.0124,0,0,-0.036,-0.0359,-0.0366,-0.0365,-0.0357,-0.0352,-0.0338,-0.0339,-0.0327,-0.0297,-0.0278,-0.0251,-0.021,-0.0181,-0.0168,-0.0164,-0.01,-0.0135,-0.0136,-0.0123,-0.0057,-0.005,-0.0044,-0.0124,-0.0124,-0.0124,0,0,-0.0384,-0.0387,-0.04,-0.0393,-0.0385,-0.0371,-0.0373,-0.0358,-0.0345,-0.0328,-0.0294,-0.0259,-0.0226,-0.0181,-0.0155,-0.0145,-0.0108,-0.0145,-0.0138,-0.0076,-0.0069,-0.0062,-0.0025,-0.0014,-0.0144,-0.0144,-0.0144,0,-0.0396,-0.0408,-0.0402,-0.0406,-0.0398,-0.038,-0.038,-0.0364,-0.0342,-0.0323,-0.0326,-0.0247,-0.0217,-0.0152,-0.015,-0.0143,-0.0115,-0.0137,-0.0075,-0.0068,-0.0061,-0.0023,-0.0012,-0.0145,-0.0145,-0.0145,-0.0145,0,-0.042,-0.0426,-0.0434,-0.0428,-0.0419,-0.0422,-0.0394,-0.0383,-0.0366,-0.034,-0.029,-0.0245,-0.0195,-0.0179,-0.0161,-0.0093,-0.0094,-0.0085,-0.007,-0.0054,-0.0017,-0.0004,-0.0146,-0.0146,-0.0145,-0.0145,0,0,-0.0455,-0.0452,-0.0455,-0.0453,-0.0431,-0.0431,-0.0405,-0.0373,-0.0355,-0.032,-0.0282,-0.0215,-0.019,-0.0159,-0.0124,-0.0068,-0.0001,-0.0061,-0.0057,-0.002,0.012,0.009,0.0101,0.0017,0.0019,0.0021,0.012,0,-0.0473,-0.049,-0.0475,-0.0478,-0.048,-0.0447,-0.0426,-0.0392,-0.036,-0.0322,-0.0251,-0.0209,-0.0182,-0.0162,-0.0097,-0.0029,0.0033,-0.003,0.0096,0.01,0.0075,0.0115,0.0029,0.0129,0.0132,0.0134,0.0136,0,-0.0498,-0.0504,-0.0518,-0.0503,-0.05,-0.0497,-0.046,-0.0438,-0.0368,-0.0341,-0.0274,-0.0225,-0.0133,-0.0121,0.0029,-0.0016,0.0055,0.0111,0.0116,0.0108,0.0094,0.0114,0.0159,0.0157,0.0155,0.0154,0.0152,0,-0.053,-0.0531,-0.0546,-0.0543,-0.0522,-0.0519,-0.0505,-0.0449,-0.043,-0.0354,-0.0331,-0.0216,-0.0167,-0.0052,0.0059,0.0047,0.0217,0.0215,0.0264,0.0261,0.0265,0.0257,0.034,0.034,0.0339,0.0339,0.0339,0,-0.0551,-0.0564,-0.0571,-0.058,-0.0597,-0.0562,-0.0562,-0.0528,-0.0474,-0.0444,-0.0351,-0.0297,-0.0147,-0.0037,0.0067,0.0198,0.0229,0.0281,0.0297,0.0251,0.0241,0.0272,0.0263,0.0343,0.0342,0.0341,0.0341,0,-0.0581,-0.0584,-0.0609,-0.0611,-0.0618,-0.0633,-0.0623,-0.0614,-0.0555,-0.0512,-0.0488,-0.035,-0.0206,-0.0059,0.0128,0.0196,0.033,0.0373,0.0303,0.031,0.0329,0.0318,0.0438,0.0438,0.0438,0.0438,0.0438,0,-0.0593,-0.0612,-0.0652,-0.0682,-0.0692,-0.0709,-0.0719,-0.067,-0.0652,-0.0539,-0.0517,-0.0368,-0.0265,-0.0021,0.0128,0.0328,0.0353,0.0411,0.0388,0.0342,0.0345,0.0334,0.0323,0.0438,0.0438,0.0438,0.0438,0,-0.0618,-0.0644,-0.067,-0.0741,-0.0776,-0.0798,-0.0802,-0.0794,-0.0716,-0.0663,-0.0523,-0.0375,-0.0211,-0.0022,0.0131,0.0275,0.0365,0.0412,0.0412,0.0392,0.0344,0.0344,0.0333,0.0438,0.0438,0.0438,0.0438,0,-0.0642,-0.0677,-0.0731,-0.0785,-0.0841,-0.0869,-0.0863,-0.0814,-0.0776,-0.0637,-0.0588,-0.0387,-0.0258,-0.0047,0.0098,0.0229,0.0259,0.0288,0.0296,0.0297,0.022,0.0136,0.0197,0,0,0,0,0,-0.0656,-0.0702,-0.0767,-0.0829,-0.0887,-0.0911,-0.0907,-0.0882,-0.0805,-0.0715,-0.0644,-0.048,-0.023,-0.0111,0.0016,0.0072,0.0256,0.0221,0.0285,0.0439,0.0439,0.0369,0,0,0,0,0,0,-0.0669,-0.0735,-0.077,-0.0854,-0.0902,-0.0951,-0.095,-0.0898,-0.0829,-0.073,-0.0593,-0.0474,-0.0235,-0.0308,0.0011,0.0055,0.0106,0.0354,0.0356,0.0439,0.0439,0.0439,0.0367,0,0,0,0,0]}]]